#timestamp,LO_Frequency,Hit,StdDev 
1663743615.1,286046999.5,N
1663743635.8,286046999.4,N
1663743655.7,286046998.6,N
1663743675.5,286046998.8,N
1663743695.4,286046998.4,N
1663743715.2,286046997.4,N
1663743735.0,286046997.9,N
1663743735.9,286046997.9,N
1663743755.8,286046999.4,N
1663743775.6,286047000.8,N
1663743795.5,286047000.8,N
1663743815.3,286046998.8,N
1663743835.1,286046999.2,N
1663743855.9,286046998.5,N
1663743875.7,286046999.7,N
1663743895.5,286046999.9,N
1663743915.4,286047000.9,N
1663743935.2,286046998.2,N
1663743955.1,286046998.1,N
1663743956.0,286046998.1,N
1663743975.8,286047000.6,N
1663743995.6,286047001.2,N
1663744015.5,286047002.6,N
1663744035.3,286046999.7,N
1663744055.2,286047002.1,N
1663744075.9,286047000.6,N
1663744095.7,286046998.1,N
1663744115.6,286046998.5,N
1663744135.4,286047000.1,N
1663744155.2,286046998.7,N
1663744175.1,286046999.4,N
1663744176.0,286046999.4,N
1663744195.8,286046996.8,N
1663744215.7,286047001.1,N
1663744235.5,286047002.3,N
1663744255.6,286047002.0,N
1663744275.4,286047003.3,N
1663744295.3,286047002.2,N
1663744315.1,286047002.7,N
1663744335.8,286047000.9,N
1663744355.7,286047000.1,N
1663744375.5,286047001.2,N
1663744395.4,286046998.6,N
1663744415.2,286047000.8,N
1663744435.0,286047002.4,N
1663744435.9,286047002.4,N
1663744455.8,286047003.8,N
1663744475.6,286047003.8,N
1663744495.5,286047005.3,N
1663744515.3,286047001.3,N
1663744535.1,286047000.9,N
1663744555.9,286047000.5,N
1663744575.7,286047002.1,N
1663744595.5,286047002.1,N
1663744615.4,286047001.5,N
1663744635.2,286047003.8,N
1663744655.0,286047003.3,N
1663744656.0,286047003.3,N
1663744675.8,286047004.4,N
1663744695.6,286047004.4,N
1663744715.5,286047003.9,N
1663744735.3,286047003.9,N
1663744755.1,286047004.2,N
1663744775.9,286047002.2,N
1663744795.7,286047002.8,N
1663744815.6,286047002.8,N
1663744835.4,286046999.7,N
1663744855.2,286046998.5,N
1663744875.1,286047000.2,N
1663744876.0,286047000.2,N
1663744895.8,286047000.9,N
1663744915.6,286047002.6,N
1663744935.5,286047004.4,N
1663744955.3,286047005.9,Y
1663744975.2,286047004.2,P
1663744995.9,286047002.2,N
1663745015.7,286047000.7,N
1663745035.6,286046998.1,N
1663745055.4,286047001.1,N
1663745075.2,286046999.4,N
1663745095.1,286046997.7,N
1663745096.0,286046997.7,N
1663745115.8,286046997.3,N
1663745135.7,286046996.6,N
1663745155.5,286046996.5,N
1663745175.3,286047000.7,N
1663745195.2,286047001.0,N
1663745215.0,286047002.4,N
1663745215.9,286047002.4,N
1663745235.8,286047001.6,N
1663745255.6,286047001.7,N
1663745275.4,286047002.8,N
1663745295.3,286047004.2,N
1663745315.1,286047003.6,N
1663745335.8,286047001.4,N
1663745355.7,286047004.4,N
1663745375.5,286047002.2,N
1663745395.4,286046998.6,N
1663745415.2,286047001.1,N
1663745435.0,286046998.5,N
1663745435.9,286046998.5,N
1663745455.8,286046998.2,N
1663745475.6,286047001.1,N
1663745495.4,286047000.4,N
1663745515.3,286047001.1,N
1663745535.1,286047000.4,N
1663745555.9,286046999.2,N
1663745575.7,286046998.2,N
1663745595.5,286047000.4,N
1663745615.4,286047000.0,N
1663745635.2,286047002.1,N
1663745655.1,286047001.2,N
1663745656.0,286047001.2,N
1663745675.8,286046999.9,N
1663745695.6,286047000.0,N
1663745715.5,286047002.6,N
1663745735.3,286047000.0,N
1663745755.2,286046998.5,N
1663745775.9,286046998.2,N
1663745795.7,286046998.8,N
1663745815.6,286046998.4,N
1663745835.4,286046998.6,N
1663745855.2,286047000.1,N
1663745875.1,286046999.7,N
1663745876.0,286046999.7,N
1663745895.8,286047000.9,N
1663745915.7,286047000.2,N
1663745935.5,286047001.1,N
1663745955.3,286047002.1,N
1663745975.2,286047002.6,N
1663745995.0,286047002.3,N
1663745995.9,286047002.3,N
1663746015.8,286047003.8,N
1663746035.6,286047001.7,N
1663746055.4,286047004.1,N
1663746075.3,286047006.0,Y
1663746095.1,286047003.2,P
1663746115.9,286047005.5,P
1663746135.7,286047005.1,N
1663746155.5,286047005.0,N
1663746175.4,286047007.0,Y
1663746195.2,286047001.3,P
1663746215.0,286047004.0,P
1663746215.9,286047004.0,P
1663746235.8,286047003.8,Y
1663746255.6,286046998.4,P
1663746275.5,286046998.1,N
1663746295.3,286046998.2,N
1663746315.1,286046998.3,N
1663746335.9,286047000.4,N
1663746355.7,286046998.1,N
1663746375.5,286046998.8,N
1663746395.4,286046998.2,N
1663746415.2,286046998.4,N
1663746435.1,286046998.9,N
1663746436.0,286046998.9,N
1663746455.8,286046999.4,N
1663746475.6,286046996.9,N
1663746495.5,286046999.3,N
1663746515.3,286046996.5,N
1663746535.1,286046997.6,N
1663746555.9,286046997.5,N
1663746575.7,286046995.2,Y
1663746595.6,286046999.3,P
1663746615.4,286046999.0,P
1663746635.2,286046998.9,P
1663746655.1,286046997.1,Y
1663746656.0,286046997.1,P
1663746675.8,286046998.6,N
1663746695.7,286046999.0,N
1663746715.5,286046999.3,N
1663746735.3,286046998.9,N
1663746755.2,286046998.3,N
1663746775.0,286046998.2,N
1663746775.9,286046998.2,N
1663746795.7,286046998.2,N
1663746815.6,286046998.4,N
1663746835.4,286046999.2,N
1663746855.3,286046999.6,N
1663746875.1,286046999.3,N
1663746876.0,286046999.3,N
1663746895.8,286046999.5,N
1663746915.7,286046996.6,Y
1663746935.5,286046998.1,P
1663746955.3,286046999.3,N
1663746975.2,286046997.0,P
1663746995.0,286046996.8,Y
1663746995.9,286046996.8,P
1663747015.8,286046998.2,N
1663747035.6,286046998.6,N
1663747055.5,286046998.2,N
1663747075.3,286047000.9,N
1663747095.1,286047001.1,N
1663747115.9,286046998.6,N
1663747135.7,286046998.5,N
1663747155.5,286046998.3,N
1663747175.4,286046998.2,N
1663747195.2,286047000.3,N
